Location: Saratoga Springs
(43.0831°N, 73.7850°W)
Time: 22:47:17
(UTC-04:00)

Vanguard 1 Rocket - Pass Details

Date: 21 April 2024
Orbit: 651 x 4220 km, 34.3° (Epoch: 20 May)

Event Time Altitude Azimuth Distance (km) Brightness Sun altitude
Rises 02:40:01 0° 264° (W) 5,367 - -29.8°
Reaches altitude 10° 02:45:36 10° 242° (WSW) 5,045 - -29.2°
Maximum altitude 02:52:43 15° 214° (SW) 5,396 - -28.5°
Drops below altitude 10° 03:01:48 10° 187° (S) 6,589 - -27.6°
Exits shadow 03:08:23 - 174° (S) 7,635 11.7 -26.9°
Sets 03:11:53 0° 169° (SSE) 8,194 11.9 -26.5°
